Regional Weather Roundup
Issued by NWS San Angelo, TX

Current Version | Previous Version | Text Only | Print | Product List | Glossary On
Versions: 1 2 3 4 5 6 7 8 9 10 11 12 13 14 15 16 17 18 19 20 21 22 23 24 25 26 27 28 29 30 31 32 33 34 35 36 37 38 39 40 41 42 43 44 45 46 47 48 49 50
000
ASUS44 KSJT 232002
RWRSJT
WEST CENTRAL TEXAS REGIONAL WEATHER ROUNDUP
NATIONAL WEATHER SERVICE SAN ANGELO TX
300 PM CDT THU OCT 23 2014

NOTE: "FAIR" INDICATES FEW OR NO CLOUDS BELOW 12,000 FEET WITH NO
SIGNIFICANT WEATHER AND/OR OBSTRUCTIONS TO VISIBILITY.

TXZ049-054-064>066-071>073-076>078-098-099-113-114-127-128-139-140-
154-155-168>170-232100
...LOCATIONS ACROSS WEST CENTRAL TEXAS...

CITY           SKY/WX    TMP DP  RH WIND       PRES   REMARKS
SAN ANGELO     CLOUDY    76  61  59 SW13      30.11F
ABILENE        MOSUNNY   81  59  47 SW12G18   30.08F
DYESS AFB      MOSUNNY   80  60  49 VRB3      30.07F
JUNCTION       MOSUNNY   77  60  55 VRB7      30.11F
SWEETWATER     NOT AVBL
BROWNWOOD      NOT AVBL
COLEMAN        MOCLDY    80  61  52 W3        30.09F
SONORA         CLOUDY    73  63  68 S8        30.17F
OZONA          CLOUDY    68  61  77 S9        30.16F
BRADY          NOT AVBL
$$

TEXAS PANHANDLE/OKLAHOMA PANHANDLE

CITY           SKY/WX    TMP DP  RH WIND       PRES   REMARKS
AMARILLO       SUNNY     75  57  53 S9        30.09F
BORGER         SUNNY     78  56  46 S7        30.06F
CANADIAN       SUNNY     79  60  52 CALM      30.04F
DALHART        SUNNY     77  47  34 CALM      30.10F
DUMAS          CLEAR     79  55  42 S8        30.08F
GUYMON         NOT AVBL
HEREFORD       CLEAR     79  49  34 CALM      30.09F
PAMPA          PTCLDY    77  59  53 S12       30.09F
PERRYTON       NOT AVBL
$$

SOUTHERN PANHANDLE/SOUTH PLAINS/ROLLING PLAINS

CITY           SKY/WX    TMP DP  RH WIND       PRES   REMARKS
LUBBOCK        MOSUNNY   70  58  65 SW8       30.10F
SNYDER         MOSUNNY   67  61  80 SW6       30.12F
CHILDRESS      SUNNY     79  59  50 SW6       30.05F
SEMINOLE       NOT AVBL
$$

PERMIAN BASIN

CITY           SKY/WX    TMP DP  RH WIND       PRES   REMARKS
MIDLAND        SUNNY     80  58  46 W6        30.10F
ODESSA         SUNNY     78  58  49 CALM      30.12F
WINK           NOT AVBL
$$

FAR WEST/SOUTHWEST MOUNTAINS/TRANS PECOS

CITY           SKY/WX    TMP DP  RH WIND       PRES   REMARKS
ALPINE         CLEAR     75  49  39 CALM      30.24F
DRYDEN           N/A     75  61  61 MISG      30.10F
EL PASO        MOSUNNY   77  49  37 VRB3      30.15F
FORT STOCKTON  SUNNY     80  58  46 NW7       30.12F
GUADALUPE PASS NOT AVBL
MARFA          MOSUNNY   75  48  38 SW9       30.23F
PECOS          CLEAR     74  62  64 NE5       30.10F
$$

DALLAS/FORT WORTH METROPLEX

CITY           SKY/WX    TMP DP  RH WIND       PRES   REMARKS
DFW AIRPORT    MOSUNNY   77  56  48 SE8       30.08F
FTW MEACHAM    SUNNY     80  58  46 SW7       30.07F
DAL-EXECUTIVE  SUNNY     79  56  45 VRB7      30.09F
GRAND PRAIRIE  SUNNY     75  59  57 MISG      30.10F
ADDISON        MOSUNNY   77  54  44 S6        30.09F
MESQUITE       MOCLDY    75  55  50 CALM      30.10F
LANCASTER      CLEAR     76  53  45 S5        30.10F
$$

NORTH CENTRAL TEXAS

CITY           SKY/WX    TMP DP  RH WIND       PRES   REMARKS
SHRMAN/DENISON CLEAR     76  61  59 S8        30.10F
GAINESVILLE    SUNNY     77  58  50 SE7       30.10F
BRIDGEPORT     CLOUDY    81  60  48 S5        30.08F
DENTON         SUNNY     78  58  49 S7        30.07F
WAXAHACHIE     PTCLDY    76  58  53 S8        30.11F
GRANBURY       MOCLDY    81  58  45 S6        30.07F
$$

WESTERN NORTH TEXAS

CITY           SKY/WX    TMP DP  RH WIND       PRES   REMARKS
WICHITA FALLS  MOSUNNY   81  59  47 SW9       30.05F
VERNON         NOT AVBL
BRECKENRIDGE   NOT AVBL
COMANCHE       PTSUNNY   81  62  51 S7        30.09F
$$

CENTRAL AND SOUTH CENTRAL TEXAS

CITY           SKY/WX    TMP DP  RH WIND       PRES   REMARKS
AUSTIN/BERGSTM PTSUNNY   80  59  48 CALM      30.08F
WACO           SUNNY     79  56  45 VRB3      30.09F
HILLSBORO      NOT AVBL
TEMPLE         SUNNY     79  55  44 CALM      30.09F
KILLEEN-GRAY   MOSUNNY   78  60  54 E5        30.09F
FORT HOOD      PTSUNNY   84  62  47 SE5       30.09F
GEORGETOWN     NOT AVBL
LAGO VISTA     FAIR      78  59  50 S5        30.10F
SAN MARCOS     MOSUNNY   81  59  47 E5        30.09F
NEW BRAUNFELS  PTSUNNY   81  58  45 CALM      30.07F
RANDOLPH AFB   MOSUNNY   82  58  43 SE6       30.08F
SAN ANTONIO    MOSUNNY   82  59  45 VRB3      30.08F
STINSON        PTSUNNY   83  58  42 VRB5      30.06F
PLEASANTON     NOT AVBL
LA GRANGE      SUNNY     80  60  50 N6        30.06F
GIDDINGS       NOT AVBL
$$

EAST TEXAS

CITY           SKY/WX    TMP DP  RH WIND       PRES   REMARKS
PARIS          PTSUNNY   70  48  46 CALM      30.13F
CLARKSVILLE    NOT AVBL
TYLER          SUNNY     75  53  46 CALM      30.11F
LONGVIEW       SUNNY     73  51  46 VRB3      30.11F
PALESTINE      CLEAR     75  55  49 N3        30.12F
NACOGDOCHES    MOSUNNY   72  52  49 NE6       30.12F
$$

TEXAS HILL COUNTRY AND EDWARDS PLATEAU

CITY           SKY/WX    TMP DP  RH WIND       PRES   REMARKS
LLANO          NOT AVBL
HORSESHOE BAY  CLOUDY    79  59  49 CALM      30.10F
KERRVILLE      NOT AVBL
FREDERICKSBRG  CLOUDY    77  59  54 SW6       30.11F
ROCKSPRINGS    NOT AVBL
HONDO          MOSUNNY   78  58  49 VRB6      30.10F
UVALDE         PTCLDY    80  60  51 CALM      30.10F
DEL RIO        MOSUNNY   78  65  63 SE9       30.08F
$$

SOUTHEAST TEXAS

CITY           SKY/WX    TMP DP  RH WIND       PRES   REMARKS
COLLEGE STN    MOSUNNY   79  55  43 N6        30.09F
CALDWELL       NOT AVBL
CROCKETT       CLEAR     75  57  53 NE3       30.13F
BRENHAM        NOT AVBL
HUNTSVILLE     SUNNY     76  53  44 VRB6      30.09F
CONROE         SUNNY     77  52  41 CALM      30.08F
HOUSTON BUSH   MOSUNNY   79  54  41 NE13      30.07F
HOUSTON HOBBY  MOSUNNY   78  52  40 N8        30.06F
PERLAND        MOSUNNY   79  51  37 NE10      30.07F
WHARTON        NOT AVBL
$$

THE UPPER TEXAS COAST

CITY           SKY/WX    TMP DP  RH WIND       PRES   REMARKS
ORANGE         PTCLDY    72  53  50 NE6       30.09F
PORT ARTHUR    MOSUNNY   77  54  44 VRB7      30.06F
GALVESTON      PTSUNNY   76  62  62 N8        30.07F
ANGLETON       PTSUNNY   77  57  50 N10       30.06F
BAY CITY         N/A     79  60  53 NE3       30.06F
$$

TEXAS COASTAL BEND, RIO GRANDE PLAINS DEEP SOUTH TEXAS

CITY           SKY/WX    TMP DP  RH WIND       PRES   REMARKS
VICTORIA       MOSUNNY   81  57  43 VRB6      30.07F
BEEVILLE       FAIR      85  57  38 CALM      30.05F
ROCKPORT       SUNNY     81  63  54 E7        30.05F
PORT ARANSAS   PTCLDY    79  65  63 E9G16     30.05F
PORT LAVACA    CLEAR     80  60  50 NE8       30.06F
CORPUS CHRISTI MOSUNNY   82  63  52 NE8       30.06F
KINGSVILLE NAS PTSUNNY   85  62  46 E7        30.05F
COTULLA        MOSUNNY   86  59  39 NE8       30.07F
LAREDO         PTSUNNY   83  59  44 E7        30.09F
BROWNSVILLE    MOSUNNY   83  67  58 N8        30.02F
PORT ISABEL    MOSUNNY   84  67  56 NE13      30.02F
HEBBRONVILLE   PTCLDY    81  57  42 NE5       30.07F
MCALLEN        MOSUNNY   84  64  50 N7        30.04F
WESLACO        MOSUNNY  N/A N/A N/A N7        30.03F
FALFURRIAS     MOCLDY    83  63  51 N7        30.05F
EDINBURG       CLEAR     85  62  46 N5        30.04F
$$



USA.gov is the U.S. government's official web portal to all federal, state and local government web resources and services.